Theta_e
346 351 357 359 361 354 352 351 350 352 351 348 347 352 351 351 351 351 345 350 349 349 344 343 341 341 341 340 340 339 336 336 334 336 335 334 332 334 334 332 335 336 336 335 335 336 336 335 337
353 357 359 359 356 352 352 350 350 350 349 348 348 349 350 351 347 348 349 350 348 347 348 346 344 345 344 342 341 342 337 336 335 335 334 332 331 334 333 331 334 335 334 335 335 335 336 335 336
357 357 358 360 348 351 351 349 349 348 347 348 348 348 351 350 349 350 349 348 347 349 350 344 344 343 343 343 341 341 339 336 335 333 332 331 331 334 332 333 335 333 334 335 335 334 333 335 334
357 354 353 345 342 347 349 348 347 348 348 348 349 350 349 349 350 350 352 351 350 350 350 344 344 344 342 339 338 337 334 333 332 331 332 332 333 335 333 335 332 332 334 335 335 333 333 333 335
353 351 346 340 342 345 348 347 347 348 347 348 348 351 349 350 350 350 351 350 351 352 352 346 345 345 344 340 335 335 333 332 332 332 332 335 335 335 335 333 331 332 334 338 336 336 333 332 337
351 344 339 339 340 342 346 346 345 347 347 347 349 350 351 350 351 351 352 351 351 351 351 348 344 344 343 338 333 332 332 331 332 333 334 334 335 335 334 332 334 335 338 336 336 339 335 331 337
350 346 339 339 340 340 342 343 344 345 345 347 348 352 351 351 351 350 352 351 351 351 351 351 349 342 342 337 333 333 333 332 331 331 332 334 335 333 332 337 337 338 339 340 338 341 340 337 337
348 344 339 341 341 339 340 343 342 343 346 345 348 352 351 351 349 349 348 348 351 351 351 351 351 350 349 341 333 334 334 332 331 331 333 335 335 334 341 339 344 343 341 342 340 340 340 340 340
345 345 344 340 341 339 339 341 342 344 343 344 346 348 349 350 349 348 347 349 351 351 350 351 351 349 350 350 342 334 333 332 332 333 336 336 348 350 349 349 343 342 341 342 340 339 340 345 347
346 347 344 340 343 341 340 340 342 343 343 345 345 347 349 349 349 348 347 350 350 351 351 350 349 350 349 348 344 348 347 346 345 348 348 342 350 349 348 348 342 342 341 342 344 341 346 348 349
343 347 342 340 340 342 341 340 341 343 344 344 345 348 348 348 349 348 348 348 349 351 351 349 353 350 349 350 349 349 349 349 349 351 350 350 350 350 349 350 351 352 349 352 349 350 349 350 348
342 343 341 341 339 342 341 342 339 340 341 342 345 347 347 348 348 348 348 348 350 350 349 348 349 351 350 350 348 349 348 347 347 349 351 351 349 349 349 349 351 349 350 350 348 349 351 347 348
339 341 339 337 339 340 341 342 341 338 340 342 345 346 347 347 347 347 347 348 349 349 349 349 350 352 351 353 349 349 348 347 347 348 350 349 349 349 349 350 350 349 349 349 350 349 348 349 349
337 338 337 336 338 339 342 342 341 340 342 343 346 346 346 346 346 346 346 347 349 350 350 350 352 353 352 351 354 350 350 349 347 348 348 350 348 350 349 349 348 349 348 349 350 349 347 347 346
335 336 339 338 338 340 340 343 343 342 344 344 346 346 345 345 345 346 346 347 349 350 350 351 352 352 353 353 352 351 350 349 349 348 351 350 351 346 348 349 350 348 349 350 346 346 348 346 346
336 338 340 339 339 340 341 343 343 344 343 346 345 346 345 345 345 346 346 347 348 349 350 351 350 351 353 353 353 352 350 351 350 349 351 352 351 349 349 351 349 349 350 350 350 348 347 342 340
336 339 339 340 340 343 343 347 344 344 343 343 346 345 346 346 346 346 347 348 348 349 350 351 351 351 353 353 353 352 351 353 352 350 351 351 352 352 351 350 348 352 350 348 348 347 344 341 335
339 339 340 345 341 344 344 347 346 346 344 341 344 344 345 345 346 347 348 348 348 349 351 352 351 351 352 352 352 354 352 353 352 350 353 350 351 352 352 351 351 348 347 349 347 345 342 338 337
339 340 340 340 340 343 345 345 346 347 347 344 342 343 344 344 346 347 348 348 348 349 352 353 353 352 353 354 355 353 353 352 350 351 351 350 354 349 349 349 351 347 346 348 346 342 335 336 340
336 340 341 340 341 341 343 345 347 348 348 347 345 343 343 343 344 346 348 348 349 351 353 354 354 354 353 356 353 351 349 348 350 353 352 356 352 352 351 349 351 349 345 346 342 339 337 335 338
335 338 340 340 343 344 344 346 345 345 347 347 346 345 344 343 343 344 348 349 350 351 353 355 355 354 355 355 353 352 353 349 351 347 349 351 350 350 347 351 348 348 341 335 338 340 338 338 337
335 336 338 339 345 349 343 348 347 345 345 348 348 347 345 344 343 343 347 349 350 351 354 355 357 356 356 355 356 352 352 349 347 346 347 346 348 347 349 347 345 343 337 337 338 339 337 333 337
333 336 338 339 341 345 343 344 345 344 345 345 347 347 347 344 344 344 345 347 349 351 353 356 357 357 356 356 353 354 351 348 348 347 348 346 348 347 345 346 346 341 328 338 339 339 335 340 336
332 336 337 338 339 344 345 346 346 345 345 345 344 346 348 346 345 346 345 346 348 349 351 354 356 358 356 356 354 351 354 350 350 349 350 346 347 346 346 347 344 340 335 341 341 339 338 334 337
330 334 339 340 341 341 345 344 350 343 344 344 343 342 345 348 345 344 346 346 347 348 350 352 354 356 354 355 357 353 351 355 352 355 349 346 346 346 346 346 344 340 332 343 340 338 339 337 338
330 332 337 341 341 340 340 345 345 344 341 341 340 339 342 347 347 344 344 344 345 347 349 351 353 354 352 357 355 355 353 355 353 350 351 345 344 344 343 343 345 341 343 341 341 336 336 338 336
330 333 334 337 338 340 340 340 340 342 342 340 340 338 338 345 347 345 344 343 344 345 348 350 351 354 348 354 350 349 346 346 352 350 348 350 343 342 343 345 341 342 341 341 339 336 338 337 337
328 331 335 338 344 344 340 340 341 342 341 340 339 338 338 339 345 346 344 344 344 344 346 349 350 354 348 349 349 349 344 341 342 349 351 350 344 340 342 344 343 340 340 331 328 337 337 338 336
327 331 333 335 338 340 341 341 339 341 341 340 339 337 337 338 343 346 346 345 345 344 345 348 352 353 353 351 352 349 345 351 341 344 349 350 344 344 344 340 342 332 326 330 320 322 330 337 337
328 328 331 341 340 338 339 339 339 338 338 338 337 337 337 336 338 342 345 346 346 346 346 348 351 355 357 356 350 346 344 342 343 337 346 348 340 336 330 331 338 324 325 324 330 329 323 336 337
Wind_Speed
9 10 14 10 5 3 5 10 13 12 13 15 10 13 10 7 5 12 19 20 22 22 24 24 25 24 23 23 23 22 23 22 21 19 16 14 13 12 11 11 11 10 10 10 11 12 12 11 11
13 11 13 12 2 4 8 14 13 13 18 15 11 6 16 18 28 27 24 23 23 22 19 18 21 19 20 21 21 20 21 21 19 16 14 13 10 9 9 9 9 9 9 10 11 11 11 10 10
12 12 16 7 10 0 10 9 16 15 8 8 8 8 13 24 27 23 25 24 22 20 18 17 19 18 19 20 20 19 19 19 17 14 12 10 7 7 8 8 8 9 9 10 10 10 10 10 9
10 15 16 7 11 12 14 14 13 11 10 8 19 15 27 22 20 25 24 22 19 17 15 18 17 17 18 18 18 18 18 17 15 11 10 9 7 7 6 6 7 7 7 8 9 10 8 8 8
12 16 9 8 10 11 12 12 11 11 12 12 24 22 23 16 23 25 22 20 18 16 14 15 16 17 17 17 17 17 16 15 12 10 10 8 6 5 5 5 6 5 6 8 9 9 8 7 7
18 13 4 10 10 8 11 6 6 15 11 9 22 23 17 19 23 21 19 18 19 15 16 15 17 16 16 16 18 17 15 14 12 11 8 6 5 4 4 5 5 5 6 7 8 8 8 6 6
17 13 8 13 9 10 9 7 7 12 12 17 22 17 18 22 21 21 19 19 20 18 16 14 14 16 17 17 18 16 13 12 11 8 6 4 3 2 3 5 6 6 6 6 6 6 7 6 6
21 12 9 9 13 12 10 5 11 12 13 18 17 11 22 25 23 22 20 20 18 16 17 17 13 13 13 16 17 13 10 11 8 6 6 4 1 4 6 6 6 7 6 6 6 4 5 6 7
14 9 7 8 8 14 11 12 8 10 16 11 6 18 24 25 24 23 21 19 19 16 15 15 14 13 13 12 13 13 10 10 7 6 4 4 2 5 7 8 9 6 6 5 7 5 7 6 9
11 6 3 9 10 17 12 12 12 13 15 13 10 23 25 26 25 23 22 20 19 16 15 17 15 14 12 11 11 8 7 6 5 4 6 2 4 6 7 7 8 8 9 6 10 7 7 7 5
17 3 6 12 8 20 13 12 12 10 12 17 16 23 27 26 24 22 21 19 19 18 16 17 16 15 14 14 7 8 7 8 7 9 8 5 5 4 6 5 7 5 7 9 9 7 5 5 5
17 26 5 7 7 8 13 15 11 7 15 18 17 23 27 25 24 22 21 19 19 18 17 17 17 16 16 11 10 9 9 8 8 7 9 7 5 5 6 6 6 5 5 9 8 10 7 7 10
14 12 4 5 9 10 17 14 12 11 9 16 19 24 26 25 23 21 20 20 20 20 19 18 18 17 16 14 11 11 10 10 9 8 9 8 7 8 7 7 7 9 8 8 6 8 9 8 9
13 15 7 4 9 10 9 16 11 15 12 17 20 24 25 24 24 22 22 21 21 21 20 19 18 17 16 15 12 12 11 10 10 10 10 12 9 8 10 11 9 7 9 11 8 9 8 8 9
16 9 12 10 11 12 12 16 15 21 15 18 20 23 24 24 24 24 23 22 22 21 20 20 19 18 17 16 14 13 12 11 11 12 11 11 16 14 12 13 10 10 10 11 12 7 7 9 8
18 17 16 14 14 12 18 16 17 20 19 19 19 22 24 25 25 24 23 23 22 21 21 20 18 18 17 16 15 14 13 13 12 11 10 11 13 13 11 9 8 9 8 10 8 7 7 8 8
15 17 20 15 16 13 16 15 17 19 20 20 19 22 24 25 25 25 24 24 23 22 22 21 20 19 18 17 16 14 13 14 12 13 11 13 13 14 9 9 10 11 10 11 6 3 6 8 9
22 21 20 18 16 13 15 5 17 18 20 20 21 21 24 25 27 26 25 24 23 22 22 22 21 20 19 18 19 16 20 14 13 13 11 13 11 12 12 9 13 12 6 5 4 6 9 8 5
23 21 18 15 24 19 17 14 13 17 19 19 24 23 25 26 26 26 26 25 24 23 22 23 22 22 20 19 16 13 12 12 14 15 17 15 12 11 13 6 9 7 6 5 6 7 7 4 4
28 23 17 13 21 20 18 19 18 17 16 19 22 26 26 26 27 27 27 28 27 26 24 24 24 24 23 18 17 16 13 13 13 14 10 10 12 9 10 10 5 7 4 7 6 4 3 5 4
27 26 18 18 19 17 16 18 19 17 22 20 20 23 27 29 30 30 30 30 29 29 28 27 27 26 25 22 16 16 13 15 9 13 12 11 9 9 10 7 7 7 9 5 5 2 4 3 4
25 25 24 19 14 15 19 16 22 19 21 20 24 24 27 31 31 31 32 32 32 31 29 29 28 28 25 25 21 19 16 15 13 11 9 9 11 10 10 10 7 9 4 8 3 3 3 2 2
25 25 23 23 19 20 23 18 11 21 19 19 22 27 28 29 32 33 34 33 32 31 30 29 31 30 27 26 24 22 20 15 13 11 10 12 10 11 10 9 10 6 5 8 7 3 2 2 2
24 25 24 24 18 16 23 18 20 16 18 19 24 28 28 29 30 32 32 32 33 33 32 30 32 33 30 28 26 28 21 20 14 14 11 9 10 10 12 12 10 7 7 6 3 4 3 4 6
28 24 16 19 18 20 25 19 23 18 18 18 19 26 29 29 29 31 33 34 33 35 35 33 34 35 33 30 29 27 30 22 21 14 15 12 12 12 14 14 12 9 8 7 5 5 6 3 3
31 29 19 25 17 20 25 24 21 19 12 18 20 19 26 29 31 33 34 35 35 35 37 37 36 37 35 32 31 30 27 25 22 21 16 15 14 13 16 16 13 11 8 7 7 5 4 5 4
30 28 28 27 24 19 21 19 22 7 18 19 16 22 18 28 30 35 35 36 36 37 40 41 38 38 39 34 34 33 32 30 25 23 23 19 18 14 17 16 15 12 11 9 8 5 8 8 8
32 24 26 23 28 27 24 22 17 19 16 17 19 19 18 21 27 34 36 37 37 37 39 39 40 39 39 37 36 35 36 35 32 29 27 23 19 22 20 19 16 14 13 10 6 6 9 10 10
21 27 23 25 24 21 20 19 21 18 18 20 22 29 22 24 26 29 34 36 39 38 38 39 39 40 39 38 38 36 37 33 35 34 32 28 26 25 20 22 19 17 15 8 7 8 12 11 12
27 29 32 17 28 20 22 19 14 17 15 12 19 22 27 22 24 27 30 34 37 41 39 39 38 38 38 38 39 40 39 38 36 36 34 33 31 29 27 26 24 23 22 20 19 17 12 13 14
Wind_Direction
198 168 167 181 187 238 86 89 110 92 106 112 114 107 115 128 137 104 130 127 128 127 128 129 130 132 135 131 129 128 130 128 130 129 124 115 103 92 90 84 81 71 62 55 45 35 34 33 38
190 181 215 269 273 26 112 80 119 109 93 107 108 88 74 77 100 121 127 133 132 130 130 130 131 131 133 136 134 129 130 136 131 130 127 117 106 94 88 79 70 59 49 45 38 29 24 27 32
193 211 251 241 101 165 98 124 95 108 122 99 94 44 70 111 118 128 136 135 134 138 142 147 134 132 132 134 133 133 135 135 134 131 129 128 112 94 82 71 58 44 43 39 27 25 23 19 30
200 232 246 267 53 62 97 99 119 119 79 63 94 88 109 112 120 132 136 138 138 138 141 147 139 139 137 135 135 135 136 138 138 138 137 129 120 94 85 67 44 35 38 29 20 18 22 23 27
244 262 247 71 78 85 97 118 142 94 86 100 110 114 113 111 126 133 141 140 140 141 146 148 148 145 144 139 139 142 142 144 145 141 134 126 109 101 77 47 25 26 24 15 15 17 20 32 24
239 251 179 93 93 101 103 121 99 103 101 115 112 129 117 131 136 140 141 144 146 137 139 144 146 146 147 149 146 145 146 146 143 142 140 130 107 81 46 17 6 18 8 11 16 16 27 37 29
253 283 88 92 115 122 114 153 141 111 128 128 138 119 133 144 143 142 143 141 139 144 144 144 145 150 156 159 156 146 146 147 150 150 150 147 127 64 23 4 6 8 4 7 13 14 16 35 41
271 260 190 156 129 114 126 144 99 142 103 130 139 140 153 149 148 146 146 146 145 150 151 150 151 148 150 163 170 165 158 166 171 167 168 161 91 359 20 340 358 345 336 354 359 10 23 27 30
251 300 271 130 139 122 151 125 143 97 133 152 146 138 152 153 152 151 152 145 144 155 158 147 152 163 156 164 174 177 179 188 190 188 184 147 333 32 330 310 308 339 341 351 352 360 21 49 31
237 296 285 41 156 128 155 146 140 156 147 146 144 133 153 157 159 159 162 158 164 163 166 165 170 162 166 165 194 174 187 193 191 211 249 173 249 233 221 280 323 341 359 6 5 18 30 28 356
247 155 340 121 3 128 151 145 148 163 165 160 151 150 160 164 166 168 170 168 171 170 168 172 169 171 170 177 179 181 201 201 225 216 217 235 237 265 303 298 313 333 350 321 359 322 355 338 318
252 167 241 74 124 178 164 136 153 171 161 156 158 163 166 171 173 175 175 173 174 175 177 179 181 182 182 189 189 195 205 210 219 240 234 217 251 258 266 269 297 297 289 297 273 290 296 297 297
222 271 177 248 164 249 151 141 147 164 145 152 154 165 173 176 179 180 181 180 181 182 184 187 190 192 192 193 200 204 210 216 222 228 253 221 240 251 268 265 271 295 288 306 277 282 299 301 298
216 232 274 232 178 183 196 148 162 147 158 152 159 171 178 182 184 183 186 186 188 188 189 192 193 197 197 202 204 210 212 221 227 234 239 267 236 249 255 281 293 287 293 273 276 268 259 303 299
259 231 209 221 180 164 220 158 198 155 169 162 170 177 182 187 188 190 190 192 192 194 194 195 197 202 205 208 219 217 223 230 233 234 233 242 257 245 244 249 262 267 278 284 291 304 326 324 314
225 227 244 159 167 153 221 179 181 158 177 170 178 182 187 191 194 195 196 197 198 197 197 198 201 206 211 211 215 216 228 231 230 239 253 236 256 273 261 275 283 283 277 276 284 311 304 305 301
216 228 228 149 174 155 224 180 168 166 186 181 183 186 192 193 198 199 200 200 200 200 201 202 201 204 208 216 217 223 227 233 241 248 240 255 255 263 259 262 265 269 263 267 287 307 305 302 305
216 220 218 171 173 181 212 167 150 171 191 187 188 189 194 198 202 202 202 202 201 203 203 204 206 205 208 214 218 219 223 226 240 248 239 256 247 242 248 249 257 265 284 290 250 264 293 291 303
231 211 231 209 163 194 196 228 159 177 201 198 190 195 197 204 204 205 204 203 202 203 204 205 203 210 203 213 217 219 231 228 234 238 244 238 263 256 253 256 258 279 259 238 305 294 296 317 289
241 242 222 209 160 193 202 206 184 181 200 209 204 196 207 206 208 205 205 204 205 203 204 203 205 205 210 215 206 216 224 229 240 240 228 231 246 249 244 235 256 244 261 276 275 290 282 292 285
231 244 234 218 165 181 229 217 205 191 189 209 218 213 206 212 207 203 206 207 206 206 204 205 207 209 210 203 213 220 218 231 228 233 257 255 233 229 242 235 209 240 233 272 295 292 282 289 292
225 233 251 231 132 238 209 245 195 202 204 196 213 216 213 208 212 208 207 209 209 209 208 207 210 210 213 210 208 215 217 222 228 229 226 213 216 208 219 213 214 228 193 219 271 284 196 281 305
229 225 233 247 230 221 202 227 212 204 201 197 207 213 217 212 211 212 209 211 213 211 211 210 212 213 206 216 206 216 215 218 216 215 217 206 217 198 201 201 214 225 185 234 212 250 207 253 285
230 237 233 234 249 238 231 204 238 172 211 193 201 205 213 214 210 212 215 213 213 213 212 211 211 215 215 209 221 204 218 212 212 213 213 207 206 208 199 208 208 215 194 226 241 224 227 199 208
224 227 228 230 220 239 227 207 238 222 193 210 212 207 202 209 211 208 211 212 211 210 210 209 209 217 218 215 212 217 206 215 213 209 215 206 210 214 224 204 211 220 209 204 226 248 202 224 199
216 219 223 223 227 228 236 230 214 219 229 197 206 228 200 197 208 210 209 209 208 208 207 207 208 214 220 214 216 218 217 213 215 220 211 216 211 214 225 236 208 200 211 212 234 228 238 251 243
213 222 225 235 229 235 229 222 240 241 216 230 252 248 219 192 205 211 209 208 207 205 205 206 207 212 221 214 219 222 225 216 215 215 228 213 212 212 212 219 201 205 201 206 230 217 247 241 247
239 215 222 230 238 236 227 237 221 203 223 245 232 245 235 226 204 212 210 208 206 206 206 205 207 212 219 216 220 221 226 228 216 216 217 213 216 206 223 214 201 199 195 201 227 242 274 249 244
218 236 222 231 237 245 245 235 224 198 206 222 227 233 223 210 203 211 211 210 207 206 206 206 207 210 216 215 218 220 224 220 227 218 224 223 211 221 209 224 202 212 193 191 302 262 229 252 263
232 226 232 227 222 244 257 250 218 212 184 226 222 223 210 216 215 202 212 210 208 207 207 207 207 210 213 213 219 226 228 226 225 227 221 229 227 228 221 224 211 211 204 226 261 270 265 253 250